User: anonymous   Login
Location: Valdosta
(30.8330°N, 83.2790°W)
Time: 21:45:27
(UTC-04:00)
Language:

Oscar 19 - Orbit

View from above orbital plane
View from above orbital plane
View from above satellite
View from above satellite

Ground track
Ground track

The orbit data is extracted from the following two-line orbital elements,

1 20442U 90005G   17177.08240214 -.00000013 +00000-0 +11302-4 0  9996
2 20442 098.5759 113.5064 0012779 118.6095 241.6376 14.32862583432834
Epoch (UTC): 26 June 2017 01:58:39
Eccentricity: 0.0012779
inclination: 98.5759°
perigee height: 773 km
apogee height: 791 km
right ascension of ascending node: 113.5064°
argument of perigee: 118.6095°
revolutions per day: 14.32862583
mean anomaly at epoch: 241.6376°
orbit number at epoch: 43283

The dashed part of the orbit path shows where the satellite is in the earth's shadow,  

DLR